Theta_e
305 309 313 316 318 319 320 321 322 324 330 332 333 333 330 327 326 324 324 325 323 322 322 321 320 321 320 319 317 317 316 316 313 314 311 312 312 313 313 313 312 311 311
303 304 306 309 314 314 314 315 316 316 316 316 321 328 329 327 326 323 323 323 322 322 322 322 321 321 320 319 318 316 316 316 315 313 310 308 311 313 313 311 311 311 311
299 301 302 302 306 309 311 312 312 311 313 314 315 315 316 316 322 324 322 322 323 322 323 322 322 322 320 320 317 316 316 315 315 315 314 308 309 311 310 310 310 310 310
297 297 299 301 301 302 306 307 307 308 308 308 310 311 311 313 311 313 323 323 322 322 322 323 322 322 321 320 317 316 315 314 313 313 313 306 305 304 308 307 305 308 308
297 297 297 298 299 300 300 303 304 302 304 304 305 305 306 306 302 302 307 313 324 322 322 322 323 320 312 316 320 317 316 314 312 311 311 310 299 300 304 306 307 305 305
296 296 297 297 297 297 297 298 299 301 300 300 300 301 301 302 292 292 295 303 308 315 320 321 322 309 309 303 303 305 313 315 313 312 310 309 309 306 308 307 304 295 295
295 295 295 296 295 295 295 295 295 297 298 297 298 298 298 298 291 291 291 299 301 303 306 314 318 318 309 317 302 300 301 301 304 315 312 311 310 308 308 303 303 301 304
293 294 294 294 293 294 293 293 293 294 296 297 296 295 296 296 292 291 290 296 298 300 301 303 306 313 314 315 315 311 312 312 305 305 316 316 314 309 310 309 307 300 290
292 292 292 293 292 292 291 291 291 291 290 293 295 295 293 292 292 291 290 294 295 294 298 300 302 303 301 301 315 313 312 312 305 301 302 302 300 299 305 300 291 292 286
290 291 291 291 291 290 290 289 289 288 286 285 287 290 291 291 290 291 291 290 290 290 291 294 292 295 292 293 303 312 307 303 299 295 296 297 297 299 295 307 299 299 287
290 290 290 289 288 289 288 287 287 286 285 287 287 288 288 288 289 290 291 289 289 288 288 289 289 291 291 291 292 303 305 296 292 294 295 293 294 297 300 304 301 303 290
288 288 288 287 287 287 284 285 284 284 285 285 286 287 289 288 288 289 290 290 289 288 288 288 288 290 290 290 289 291 292 289 291 290 289 288 289 291 293 291 290 289 290
286 285 285 285 285 285 284 283 283 283 284 284 285 285 287 289 286 288 289 289 288 288 288 288 288 289 289 287 288 288 288 289 288 287 287 287 286 287 287 287 286 287 286
286 286 286 285 285 286 286 284 284 284 283 283 284 285 286 287 284 287 287 288 288 287 286 287 286 285 286 286 286 286 286 288 289 288 286 285 286 287 287 287 286 287 286
286 286 286 286 286 286 286 286 286 287 286 285 285 286 286 286 287 287 287 286 287 288 285 285 285 285 285 285 285 285 285 286 286 285 286 286 286 286 286 287 287 286 285
284 285 285 285 286 286 285 285 287 286 287 287 287 286 287 288 288 288 288 289 288 286 285 285 285 285 285 285 285 285 285 285 285 286 286 286 286 286 286 286 287 287 285
284 284 285 285 285 285 285 284 283 286 287 286 287 287 287 287 288 289 288 289 288 285 286 286 286 286 286 285 285 285 284 285 286 286 286 286 286 285 286 285 285 285 284
284 284 285 285 284 284 284 284 284 283 283 284 286 286 287 287 288 288 288 287 285 285 286 287 286 286 286 285 285 284 284 285 285 285 285 285 286 285 285 285 285 284 283
283 284 285 285 284 285 284 284 284 284 284 284 285 284 284 287 287 288 288 286 286 285 286 286 287 286 286 286 285 285 285 285 285 285 285 285 285 286 285 285 284 284 283
285 285 285 284 284 284 284 284 284 284 284 284 284 284 286 285 285 286 286 286 286 286 286 287 286 286 286 286 285 285 285 285 285 285 285 285 285 286 285 284 284 283 283
285 285 284 284 284 283 283 284 284 284 284 284 284 286 286 285 285 285 285 286 286 286 286 286 286 286 286 286 285 285 285 285 285 285 285 285 285 285 285 285 285 284 284
285 285 283 284 284 283 283 283 284 285 285 285 285 285 285 285 285 285 285 286 286 287 287 286 286 286 286 286 286 285 285 285 285 285 285 285 285 285 285 284 284 284 283
285 284 283 284 284 283 283 282 282 284 285 285 284 284 284 284 285 285 285 285 286 285 286 286 285 285 285 286 287 287 286 285 286 286 285 285 284 284 284 284 284 283 283
285 284 284 283 283 283 283 282 281 279 283 284 284 284 285 285 285 285 285 285 285 285 285 285 285 284 284 285 286 286 286 286 287 286 286 285 285 285 284 284 283 284 283
284 284 283 283 283 283 283 282 282 282 283 284 284 284 284 285 284 284 285 285 284 284 284 284 284 284 285 285 285 285 285 286 286 286 286 286 285 285 284 284 283 283 283
284 283 283 283 282 283 283 283 283 282 282 282 283 283 283 283 283 284 284 284 284 284 284 284 283 283 283 284 284 285 285 285 285 285 286 285 284 284 284 283 283 283 282
Wind_Speed
15 13 13 10 9 9 8 5 6 6 7 11 15 17 17 16 16 15 17 15 16 16 15 17 18 19 12 12 10 11 11 11 12 6 6 9 11 13 11 13 12 13 12
15 15 15 14 13 13 11 9 10 11 10 7 5 8 13 16 15 16 15 12 15 17 17 16 18 12 17 13 11 14 12 13 12 15 5 5 9 14 12 13 12 11 13
14 14 15 15 15 13 12 11 9 10 9 8 8 7 6 4 5 12 14 14 14 13 17 17 18 17 16 13 12 13 12 11 11 10 9 3 3 6 7 7 11 11 10
17 15 14 13 13 12 10 10 10 10 9 8 6 7 6 4 7 4 6 14 14 14 14 14 13 10 13 14 11 13 12 11 10 10 11 4 3 3 4 8 7 7 9
14 15 15 13 10 9 11 7 8 8 6 4 6 8 1 6 5 5 5 4 13 15 19 20 19 19 21 19 12 14 15 12 10 10 10 7 4 3 10 5 8 6 8
11 12 12 11 12 10 5 5 9 4 2 8 2 6 3 5 5 7 7 5 5 3 14 15 14 13 17 20 19 18 17 17 16 10 10 11 13 10 7 8 5 3 3
9 11 9 10 10 12 11 8 6 6 4 2 5 5 4 4 6 7 6 3 4 4 4 5 9 9 14 15 17 20 20 19 19 15 15 15 14 14 11 8 9 8 9
11 10 10 9 9 8 8 8 7 5 5 4 1 2 2 2 3 2 4 3 3 4 4 4 5 5 9 13 13 13 15 14 13 11 14 13 13 12 15 15 14 5 4
5 7 8 8 9 8 8 7 5 4 4 5 3 4 1 2 3 5 2 1 4 3 3 4 4 5 7 15 15 14 14 14 11 17 15 12 11 16 12 7 6 7 2
10 8 8 6 6 8 9 7 4 4 4 3 6 6 5 4 4 6 4 1 5 4 4 4 5 6 8 7 10 11 10 8 7 4 5 6 9 12 19 15 11 10 5
9 9 9 7 8 7 6 5 6 6 5 5 7 5 6 6 5 8 10 4 3 4 3 4 4 8 7 8 7 8 7 7 8 8 6 3 4 7 10 11 12 12 7
6 7 7 8 6 7 7 8 5 4 6 7 5 6 6 7 10 11 13 12 7 4 5 4 5 6 8 10 5 9 8 5 4 4 4 3 4 6 6 5 6 4 3
7 6 6 7 7 7 8 9 8 6 6 7 5 5 6 7 6 12 14 12 11 7 7 7 8 8 8 6 9 8 6 4 4 3 5 4 4 5 8 6 8 9 9
12 11 9 8 8 8 6 6 7 8 8 7 8 7 6 6 6 6 7 8 13 9 6 4 4 3 3 3 2 2 1 3 6 4 3 3 4 6 7 5 5 5 5
12 12 11 10 12 10 9 9 9 10 10 10 10 8 8 9 7 8 8 7 6 8 3 2 2 0 1 1 1 3 2 2 3 4 4 5 5 7 6 6 7 6 5
12 10 10 11 11 10 11 12 13 17 20 22 23 17 11 16 11 8 12 13 13 9 3 3 4 5 5 4 3 3 1 3 3 4 5 5 5 6 7 7 8 7 9
11 12 10 12 10 11 11 11 15 9 16 22 24 24 25 26 20 15 14 12 12 11 4 4 5 6 5 5 4 3 4 3 4 4 6 6 7 6 8 7 8 9 8
13 17 10 10 10 10 10 10 10 11 14 12 13 20 23 24 21 20 13 10 5 8 6 6 6 5 5 6 6 4 5 6 6 6 6 7 7 9 8 8 7 10 9
12 11 11 10 11 11 10 10 10 11 12 12 10 10 10 19 18 19 15 10 9 8 8 6 5 6 7 6 6 6 7 6 7 7 6 7 8 8 8 7 8 10 12
11 18 14 10 10 11 9 9 10 10 10 10 9 10 6 7 8 8 9 9 8 7 7 7 6 6 7 8 8 7 7 7 7 7 7 6 7 8 9 8 8 8 8
10 12 15 11 10 10 10 10 10 11 10 9 9 8 10 7 7 7 7 8 7 7 8 7 7 7 7 8 8 8 7 7 7 8 8 7 8 8 9 9 8 7 8
9 10 10 10 11 11 10 9 9 9 9 8 7 4 10 6 5 6 6 6 6 6 6 7 7 7 7 9 9 9 8 8 8 8 8 7 7 8 9 9 8 7 7
9 12 12 11 10 12 9 8 7 7 7 6 4 3 5 4 5 6 7 6 6 5 5 7 7 6 6 7 7 9 9 8 8 8 9 8 8 7 8 8 8 7 6
10 10 11 10 9 9 8 8 6 6 4 3 1 2 4 4 5 6 5 5 5 5 5 6 7 9 9 8 7 7 8 8 8 8 11 9 9 9 8 8 7 7 7
9 9 9 10 9 8 9 7 6 6 5 4 3 2 3 4 5 5 6 6 6 6 7 7 7 10 11 12 11 12 13 14 10 10 8 10 11 11 9 8 8 8 9
9 10 8 8 8 8 8 8 7 7 6 5 5 5 5 5 5 6 6 8 7 7 10 7 9 13 12 11 13 14 14 14 12 12 9 9 9 8 7 8 10 7 9
Wind_Direction
37 36 50 59 60 70 77 83 98 95 160 174 185 184 191 194 196 195 198 197 199 203 205 208 207 203 199 199 197 205 211 211 226 213 186 189 189 201 205 203 204 205 206
42 38 42 44 51 58 58 56 74 77 67 73 107 166 183 186 189 198 206 197 198 205 207 212 212 209 210 204 203 208 210 211 210 233 166 174 197 202 198 198 202 207 210
43 45 46 47 41 44 49 39 37 76 74 56 41 75 58 44 195 191 187 191 201 218 216 210 214 213 217 207 200 205 209 213 211 220 223 134 176 170 195 204 205 209 213
30 37 41 42 46 35 39 44 29 33 59 67 65 51 59 28 37 8 212 205 202 187 211 215 211 221 228 215 207 211 215 212 210 210 223 171 164 192 180 192 202 207 220
33 27 14 19 46 49 26 9 55 47 40 28 78 85 41 92 42 13 17 316 222 216 208 211 211 212 197 202 203 206 211 213 212 209 217 208 164 169 199 190 210 184 213
12 14 10 13 8 11 30 2 24 33 103 48 288 71 122 87 66 40 24 336 338 302 218 218 220 205 204 203 206 207 202 203 214 208 209 216 215 214 210 199 182 146 232
35 34 17 18 9 4 355 4 25 348 18 74 55 54 36 49 44 28 18 0 331 323 339 287 219 209 206 209 207 211 209 209 209 202 208 204 210 200 198 185 192 201 210
42 12 12 10 7 358 7 5 345 338 352 341 0 187 130 32 357 44 350 321 291 303 315 313 324 280 209 211 211 214 223 222 219 219 216 215 207 190 198 200 202 187 68
26 17 353 356 343 343 335 352 340 352 352 293 286 264 272 266 313 314 307 235 275 273 278 294 290 285 305 215 213 216 221 225 218 213 217 217 195 177 177 132 139 149 210
1 349 344 331 328 327 322 324 320 359 301 313 288 279 273 267 254 282 290 298 293 304 288 258 252 272 290 288 245 225 221 220 200 211 223 231 207 189 166 188 171 189 143
341 336 333 331 326 316 306 311 324 314 314 301 304 268 231 241 259 263 251 247 245 270 276 288 283 274 278 285 235 245 235 175 201 202 209 170 167 167 193 206 180 188 168
321 307 302 304 304 305 303 306 293 273 277 275 269 278 279 257 235 239 235 235 223 230 244 253 255 246 280 287 270 234 245 171 148 151 146 154 169 182 187 169 144 105 111
314 286 277 274 280 284 290 294 301 289 272 270 249 237 246 260 241 229 242 234 231 239 246 247 228 253 248 255 261 242 188 166 155 155 187 176 164 136 114 90 87 90 74
321 317 308 297 292 280 263 260 268 278 280 271 270 254 248 253 224 213 226 221 227 229 240 247 274 152 146 180 106 100 239 178 187 166 138 121 136 133 134 138 121 119 96
318 315 309 303 302 294 280 270 261 257 252 264 263 264 257 256 246 224 196 219 218 218 149 140 218 209 121 203 107 119 138 118 134 122 142 160 154 134 132 135 131 128 117
310 304 304 306 301 290 284 288 254 246 251 250 253 254 260 258 262 247 232 228 224 176 176 186 201 197 176 199 166 126 113 127 121 129 135 141 152 147 144 139 135 139 135
294 298 303 296 286 288 289 291 295 270 251 251 253 250 252 258 252 242 244 245 221 171 211 202 209 192 181 164 171 158 149 139 124 135 146 141 129 131 137 137 126 126 125
298 300 291 286 288 287 277 273 270 280 288 280 252 241 246 246 241 230 222 217 210 214 200 206 199 189 179 162 156 163 139 144 143 147 147 136 140 140 141 132 136 132 133
308 309 305 294 296 291 287 281 272 268 267 267 269 247 238 237 223 215 202 219 215 210 209 212 188 179 173 160 152 154 145 152 144 139 143 134 131 133 127 128 119 124 122
307 312 308 306 303 304 297 288 284 275 275 272 256 251 239 204 212 205 209 206 208 201 196 196 183 173 165 157 147 143 137 147 141 134 133 133 123 128 128 117 120 130 127
313 314 317 313 312 307 299 292 283 282 269 257 246 241 205 203 211 190 192 199 206 195 186 179 169 165 167 145 141 140 148 139 131 130 130 129 124 127 122 118 126 134 135
303 308 312 306 307 305 299 293 287 283 270 258 255 221 201 203 184 169 178 199 197 192 171 164 159 166 157 146 142 141 140 136 134 131 129 126 127 123 116 122 123 131 130
307 321 324 321 315 313 310 303 301 299 278 257 231 193 180 181 164 166 172 167 159 152 146 145 142 135 129 124 133 136 141 141 138 131 127 124 119 114 115 116 122 131 134
317 320 325 321 320 321 325 326 320 321 327 325 249 164 164 149 149 149 147 134 127 132 133 128 128 127 120 116 116 117 117 116 117 116 119 121 122 117 112 117 126 129 135
326 329 328 328 328 335 337 333 337 348 351 4 18 55 103 117 125 123 121 120 117 125 109 109 110 115 116 121 116 111 114 113 115 119 117 119 121 122 121 126 138 136 140
332 339 335 333 338 342 347 349 356 1 13 21 34 47 66 81 88 93 99 102 104 102 99 99 102 106 106 102 103 106 107 109 108 111 115 118 116 113 120 128 132 132 132